Weather in Staraya Ryazan

Russia / Ryazan Oblast     54°24′10″N   40°25′25″E
temp.,
°C
wind,
m/s
gust,
m/s
humid.,
%
clouds,
%
prec.,
mm/h
press.,
hPa
HPBL,
m
7 march, sun
sun700:00−12w34910 0.0 101567
03:00−14wsw47890 0.0 101396
06:00−12ssw5119233 0.0 1011215
09:00−8ssw8168567 0.0 1007639
12:00−5sw101793100 0.9 10021132
15:00−4sw101694100 3.2 9981206
18:00−3sw81594100 1.9 9941004
21:00−2w81387100 2.7 992644
8 march, mon
mon800:00−7w5109478 0.1 994303
03:00−8w7168057 0.1 998545
06:00−11wsw411900 0.0 998234
09:00−8wsw5119020 0.0 999488
12:00−5wsw7108695 0.1 9991124
15:00−5wnw7107797 0.5 10001396
18:00−8w5118557 0.1 1003240
21:00−11wnw349228 0.1 100667
9 march, tue
tue900:00−12nw349648 0.0 100863
03:00−15nw349530 0.0 101051
06:00−16wnw3497100 0.0 101265
09:00−13nw369497 0.1 1013277
12:00−10nw358797 0.0 1014653
15:00−9nw458598 0.1 1016877
18:00−12nw3593100 0.1 1016137
21:00−16nnw3496100 0.2 101972
10 march, wed
wed1000:00−19nnw339897 0.1 102037
03:00−23nw349855 0.1 102258
06:00−25nw349841 0.0 102457
09:00−22nnw359525 0.0 1025236
12:00−17nnw358215 0.0 1026509
15:00−14nw35789 0.0 1026769
18:00−18nnw238743 0.0 102720
21:00−21nw229422 0.0 102820
11 march, thu
thu1100:00−23w22960 0.0 102920
03:00−23wsw22930 0.0 103020
06:00−23wsw23910 0.0 102920
09:00−20sw23883 0.0 1030123
12:00−14ssw35780 0.0 1029287
15:00−11ssw468717 0.0 1028385
18:00−12ssw499298 0.1 1027347
21:00−15s4109380 0.1 1027192